#timestamp,LO_Frequency,Hit 
1500760815.9,286047002.7,N
1500760835.7,286047002.6,N
1500760855.5,286047002.7,N
1500760875.4,286047002.5,N
1500760895.2,286047002.0,N
1500760915.0,286047004.0,N
1500760915.9,286047004.0,N
1500760935.8,286047004.0,N
1500760955.6,286047003.6,N
1500760975.4,286047002.1,N
1500760995.3,286047002.5,N
1500761015.1,286047001.5,N
1500761016.0,286047001.5,N
1500761035.8,286047004.2,N
1500761055.7,286047003.9,N
1500761075.5,286047004.1,N
1500761095.3,286047005.6,N
1500761115.2,286047003.2,N
1500761135.9,286047004.2,N
1500761155.7,286047003.8,N
1500761175.5,286047003.6,N
1500761195.4,286047001.7,N
1500761215.2,286047002.1,N
1500761235.0,286047004.3,N
1500761235.9,286047004.3,N
1500761255.8,286047005.6,N
1500761275.6,286047003.7,N
1500761295.4,286047003.7,N
1500761315.3,286047004.2,N
1500761335.1,286047005.9,N
1500761355.8,286047004.7,N
1500761375.7,286047005.2,N
1500761395.5,286047005.7,N
1500761415.3,286047004.9,N
1500761435.2,286047007.5,N
1500761455.9,286047007.6,N
1500761475.7,286047005.3,N
1500761495.6,286047004.9,N
1500761515.4,286047005.9,N
1500761535.2,286047004.7,N
1500761555.1,286047005.5,N
1500761556.0,286047005.5,N
1500761575.8,286047005.7,N
1500761595.6,286047007.6,N
1500761615.5,286047005.6,N
1500761635.3,286047005.2,N
1500761655.1,286047006.8,N
1500761675.9,286047006.8,N
1500761695.7,286047006.2,N
1500761715.5,286047008.9,N
1500761735.3,286047009.1,N
1500761755.2,286047010.2,N
1500761775.0,286047008.4,N
1500761775.9,286047008.4,N
1500761795.7,286047006.2,N
1500761815.6,286047008.3,N
1500761835.4,286047008.4,N
1500761855.2,286047008.2,N
1500761875.1,286047008.7,N
1500761876.0,286047008.7,N
1500761895.8,286047008.7,N
1500761915.6,286047006.4,N
1500761935.5,286047009.1,N
1500761955.3,286047009.0,N
1500761975.1,286047008.5,N
1500761995.9,286047006.4,N
1500762015.7,286047009.0,N
1500762035.5,286047008.5,N
1500762055.4,286047010.7,N
1500762075.2,286047010.2,N
1500762095.0,286047010.3,N
1500762095.9,286047010.3,N
1500762115.8,286047010.3,N
1500762135.6,286047012.4,N
1500762155.4,286047010.3,N
1500762175.2,286047010.7,N
1500762195.1,286047010.1,N
1500762196.0,286047010.1,N
1500762215.8,286047010.6,N
1500762235.6,286047010.1,N
1500762255.5,286047009.5,N
1500762275.3,286047012.4,N
1500762295.1,286047010.2,N
1500762315.9,286047008.5,N
1500762335.7,286047010.0,N
1500762355.5,286047010.6,N
1500762375.4,286047009.9,N
1500762395.2,286047011.5,N
1500762415.0,286047013.2,N
1500762415.9,286047013.2,N
1500762435.8,286047015.5,N
1500762455.6,286047015.4,N
1500762475.4,286047013.1,N
1500762495.3,286047012.7,N
1500762515.1,286047015.6,N
1500762516.0,286047015.6,N
1500762535.8,286047014.0,N
1500762555.7,286047015.5,N
1500762575.5,286047015.1,N
1500762595.3,286047012.6,N
1500762615.2,286047014.8,N
1500762635.9,286047014.7,N
1500762655.7,286047012.6,N
1500762675.6,286047013.2,N
1500762695.4,286047015.6,N
1500762715.2,286047015.1,N
1500762735.0,286047015.0,N
1500762736.0,286047015.0,N
1500762755.8,286047016.6,N
1500762775.6,286047018.8,N
1500762795.4,286047017.7,N
1500762815.3,286047016.6,N
1500762835.1,286047018.1,N
1500762855.8,286047020.2,N
1500762875.7,286047019.1,N
1500762895.5,286047019.9,N
1500762915.3,286047018.2,N
1500762935.2,286047017.9,N
1500762955.0,286047017.8,N
1500762955.9,286047017.8,N
1500762975.7,286047018.0,N
1500762995.6,286047018.0,N
1500763015.4,286047020.2,N
1500763035.2,286047019.6,N
1500763055.1,286047019.0,N
1500763056.0,286047019.0,N
1500763075.8,286047019.2,N
1500763095.6,286047020.2,N
1500763115.5,286047020.4,N
1500763135.3,286047017.0,N
1500763155.1,286047016.7,N
1500763175.9,286047017.0,N
1500763195.7,286047016.6,N
1500763215.5,286047017.0,N
1500763235.4,286047015.7,N
1500763255.2,286047017.5,N
1500763275.0,286047018.4,N
1500763275.9,286047018.4,N
1500763295.8,286047018.5,N
1500763315.6,286047020.4,N
1500763335.4,286047019.8,N
1500763355.3,286047017.9,N
1500763375.1,286047016.4,N
1500763376.0,286047016.4,N
1500763395.8,286047018.5,N
1500763415.7,286047014.6,N
1500763435.5,286047016.3,N
1500763455.3,286047015.7,N
1500763475.2,286047017.5,N
1500763495.9,286047020.0,N
1500763515.7,286047021.8,N
1500763535.5,286047019.3,N
1500763555.4,286047021.7,N
1500763575.2,286047021.4,N
1500763595.0,286047018.9,N
1500763595.9,286047018.9,N
1500763615.8,286047021.6,N
1500763635.6,286047022.0,N
1500763655.4,286047021.4,N
1500763675.3,286047021.5,N
1500763695.1,286047021.8,N
1500763715.8,286047019.3,N
1500763735.7,286047021.2,N
1500763755.5,286047021.9,N
1500763775.3,286047021.7,N
1500763795.2,286047021.9,N
1500763815.9,286047019.3,N
1500763835.7,286047021.8,N
1500763855.6,286047021.1,N
1500763875.4,286047021.7,N
1500763895.2,286047021.8,N
1500763915.1,286047020.5,N
1500763916.0,286047020.5,N
1500763935.8,286047022.2,N
1500763955.6,286047023.1,N
1500763975.5,286047021.3,N
1500763995.3,286047021.0,N
1500764015.1,286047021.5,N
1500764035.9,286047021.4,N
1500764055.7,286047022.3,N
1500764075.5,286047023.0,N
1500764095.3,286047021.7,N
1500764115.2,286047023.5,N
1500764135.0,286047022.1,N
1500764135.9,286047022.1,N
1500764155.7,286047022.1,N
1500764175.6,286047025.1,N
1500764195.4,286047024.7,N
1500764215.2,286047023.2,N
1500764235.1,286047025.1,N
1500764236.0,286047025.1,N
1500764255.8,286047023.9,N
1500764275.6,286047024.2,N
1500764295.5,286047026.8,N
1500764315.3,286047025.7,N
1500764335.1,286047024.0,N
1500764355.9,286047025.2,N
1500764375.7,286047022.2,N
1500764395.5,286047022.2,N
